COSMOS 1700

Satellite information

Favourite Embed

Satellite Type and Status

PAYLOADIN ORBIT

Key statistics

Satellite COSMOS 1700 at a glance.

Uptime

14619

Days in orbit

Revolutions

≈ 1.0

Per day

Orbit

OTHER

Other

Inclination

10.1

Latest

Satellite identification and parameters

Extended collection of information and parameters for COSMOS 1700.

Object identification

Identified? True

Debris? False

Object name: COSMOS 1700

International designator: 1985-102A

Object number (NORAD): 16199

Object ID (CCSDS): 16199

Country: COMMONWEALTH OF INDEPENDENT STATES (CIS)

Current information (Y/N): Y

RCS size: LARGE

Orbital parameters

Period: 1435.998 minutes

Inclination: 10.0938 deg

SMA: 42162.798 km

Apoapsis: 35814.615 km

Periapsis: 35754.71 km

RAAN: 320.2726 deg

Eccentricy: 0.0007104

Argument of periapsis: 242.537 deg

Mean anomaly: 75.0808 deg

Mean motion: 1.00278685 rev/day

Mean motion (dot): 0.00000059 rev/day2

B* drag term: 0.0 1/REarth

Two-line elements (TLE)

Creation date: Nov. 2, 2025, 3:46 p.m.

Reference frame: TEME

Reference center: EARTH

Epoch: Nov. 2, 2025, 12:01 p.m. UTC

TLE line 0: 0 COSMOS 1700

TLE line 1: 1 16199U 85102A 25306.50108050 .00000059 00000-0 00000+0 0 9990

TLE line 2: 2 16199 10.0938 320.2726 0007104 242.5370 75.0808 1.00278685149397

Live tracking on map

Real-time ground track for satellite COSMOS 1700.

In-orbit conjunctions

A list of the most updated potential collisions computed for object COSMOS 1700.

Target Orbit TCA Probability of collision Miss distance Type
SL-12 R/B(2) GEO 2025-09-03 19:29:36 TBA 3979.0 (m) ROCKET BODY
GORIZONT 20 OTHER 2025-08-30 11:02:23 TBA 2377.0 (m) PAYLOAD
RADUGA 5 OTHER 2025-05-13 15:43:07 TBA 1034.0 (m) PAYLOAD
RADUGA 30 OTHER 2025-05-12 18:18:07 TBA 1892.0 (m) PAYLOAD
STTW-2 OTHER 2025-03-22 20:37:45 TBA 3696.0 (m) PAYLOAD

Associated space launch

Geostationary communications satellite

COSMOS 1700 was lifted into orbit during the mission ‘Proton | Luch #1’, on board a Proton space rocket.

The launch took place on Oct. 25, 1985, 3:45 p.m. from 200/40.

For more information about the launch, click the button.

Launch to space Proton | Luch #1
Proton | Luch #1

Agency: N/A

Status: Launch Successful

Launch date: Oct. 25, 1985, 3:45 p.m. UTC

Rocket: Proton

Launch pad: 200/40

Location: Baikonur Cosmodrome, Republic of Kazakhstan

...

Latest news about this satellite

There are no fresh news available about this satellite. Check back as we update our databases every day.


Newsletter sign-up

Weekly statistics, charts and insights to help you stay on top of the space industry.